Regional Weather Roundup
Issued by NWS

Home | Current Version | Previous Version | Graphics & Text | Print | Product List | Glossary On
Versions: 1 2 3 4 5 6 7 8 9 10 11 12 13 14 15 16 17 18 19 20 21 22 23 24 25 26 27 28 29 30 31 32 33 34 35 36 37 38 39 40 41 42 43 44 45 46 47 48 49 50
000
ASUS43 KFSD 011110
RWRSD

WEATHER ROUNDUP FOR SOUTH DAKOTA
NATIONAL WEATHER SERVICE SIOUX FALLS SD
600 AM CDT SAT OCT 01 2016

NOTE: "FAIR" INDICATES FEW OR NO CLOUDS BELOW 12,000 FEET WITH NO
SIGNIFICANT WEATHER AND/OR OBSTRUCTIONS TO VISIBILITY.


SDZ001>005-009-010-012>017-011200-
NORTHWEST AND NORTH CENTRAL SOUTH DAKOTA

CITY           SKY/WX    TMP DP  RH WIND       PRES   REMARKS
BUFFALO          N/A     54  47  77 CALM      29.93F
FAITH            N/A     53  46  77 SE13      29.99R
MOBRIDGE       PTCLDY    62  46  55 SE15      30.00F
$$

SDZ012>016-024>037-041>051-057-063-072>074-011200-
SOUTHWEST AND SOUTH CENTRAL SOUTH DAKOTA

CITY           SKY/WX    TMP DP  RH WIND       PRES   REMARKS
RAPID CTY ARPT CLEAR     49  46  90 CALM      30.01S
PIERRE         CLOUDY    59  45  59 SE13      30.01F
CUSTER         CLEAR     47  42  83 NW5       30.12S
ELLSWORTH AFB  CLEAR     50  48  92 NW3       30.00S
PHILIP         PTCLDY    59  49  69 E7        29.99F
PINE RIDGE     CLEAR     53  47  79 S7        30.04F
WINNER         FAIR      57  45  64 S15       30.07F
$$

SDZ004>011-016>023-039-040-011200-
NORTHEAST SOUTH DAKOTA

CITY           SKY/WX    TMP DP  RH WIND       PRES   REMARKS
ABERDEEN       CLOUDY    52  47  83 SE9       30.11F
WATERTOWN      CLEAR     50  47  89 SE5       30.16S
BROOKINGS      CLEAR     46  45  96 CALM      30.16S
SISSETON         N/A     43  42  97 S6        30.16R
$$

SDZ017-020-022-023-036>040-048>070-011200-
SOUTHEAST SOUTH DAKOTA

CITY           SKY/WX    TMP DP  RH WIND       PRES   REMARKS
SIOUX FALLS    MOCLDY    48  46  93 CALM      30.16S
HURON          PTCLDY    48  46  93 S5        30.12S
CHAMBERLAIN    CLOUDY    55  49  80 SE8       30.09F
MITCHELL       PTCLDY    46  43  89 SE6       30.13S
YANKTON        CLEAR     48  46  93 E3        30.13S
$$

ABBREVIATIONS USED IN REMARKS
   TC - TEMPERATURE IN CELSIUS
  WCI - WIND CHILL INDEX
   HX - HEAT INDEX
  VSB - VISIBILITY





USA.gov is the U.S. government's official web portal to all federal, state and local government web resources and services.